Home   Weather   Uppsala   Past weeks

Flag for Sweden Past Weather in Uppsala, Sweden — Yesterday and Last 2 Weeks

Now
46 °F

Passing clouds.


Feels Like: 43 °F
Forecast: 29 / 47 °F
Wind: 7 mph from South

Location: Stockholm / Arlanda

Current Time: Apr 27, 2017 at 7:18:32 pm

Latest Report: Apr 27, 2017 at 6:20 pm


Visibility: N/A

Pressure: 29.83 "Hg

Humidity: 50%

Dew Point: 28 °F

Location of UppsalaLocation

Past Weather in Uppsala — Graph

°F

Uppsala Temperature Yesterday

Maximum temperature yesterday: 45 °F (at 2:50 pm)
Minimum temperature yesterday: 32 °F (at 11:20 pm)
Average temperature yesterday: 37 °F

High & Low Weather Summary for the Past Weeks

 TemperatureHumidityPressure
High55 °F (Apr 21, 12:20 pm)100% (Apr 18, 1:20 am)30.51 "Hg (Apr 18, 1:20 am)
Low16 °F (Apr 15, 4:20 am)25% (Apr 19, 3:50 pm)29.24 "Hg (Apr 25, 2:20 am)
Average35 °F70%29.81 "Hg
* Reported Apr 12 6:20 pm — Apr 27 6:20 pm, Uppsala, Weather by CustomWeather, © 2017

Note: Actual official high and low records may vary slightly from our data, if they occured in-between our weather recording intervals... More about our weather records

Advertising

Uppsala Weather History for the Previous 24 Hours

Scroll right to see more
 ConditionsComfort  
Time TempWeatherWind HumidityBarometerVisibility
6:20 pm
Thu, Apr 27
46 °FPassing clouds.7 mph50%29.83 "HgN/A
5:50 pm46 °FPassing clouds.10 mph50%29.83 "HgN/A
5:20 pm45 °FScattered showers. Scattered clouds.10 mph53%29.83 "HgN/A
4:50 pm46 °FSprinkles. Broken clouds.5 mph43%29.80 "HgN/A
4:20 pm45 °FPartly sunny.13 mph49%29.80 "HgN/A
3:50 pm48 °FPartly sunny.12 mph37%29.80 "HgN/A
3:20 pm48 °FPartly sunny.10 mph34%29.80 "HgN/A
2:50 pm48 °FScattered clouds.6 mph34%29.77 "HgN/A
2:20 pm46 °FScattered clouds.7 mph34%29.77 "HgN/A
1:50 pm45 °FScattered clouds.10 mph39%29.77 "HgN/A
1:20 pm45 °FBroken clouds.9 mph39%29.77 "HgN/A
12:50 pm45 °FPartly sunny.12 mph39%29.77 "HgN/A
12:20 pm46 °FScattered clouds.8 mph34%29.77 "HgN/A
11:50 am45 °FScattered clouds.9 mph42%29.77 "HgN/A
11:20 am45 °FPassing clouds.8 mph46%29.77 "HgN/A
10:50 am45 °FPassing clouds.7 mph49%29.74 "HgN/A
10:20 am45 °FPassing clouds.5 mph57%29.74 "HgN/A
9:50 am43 °FPassing clouds.6 mph66%29.74 "HgN/A
9:20 am41 °FSunny.6 mph70%29.74 "Hg10 mi
8:50 am39 °FPassing clouds.6 mph70%29.74 "HgN/A
8:20 am37 °FSunny.7 mph75%29.74 "Hg10 mi
7:50 am36 °FSunny.8 mph87%29.71 "Hg10 mi
7:20 am34 °FSunny.6 mph87%29.71 "Hg10 mi
6:50 am32 °FSunny.5 mph93%29.71 "Hg10 mi
6:20 am32 °FSunny.5 mph93%29.71 "Hg10 mi
5:50 am30 °FSunny.6 mph93%29.71 "Hg10 mi
5:20 am30 °FSunny.6 mph93%29.71 "Hg10 mi
4:50 am30 °FClear.5 mph93%29.71 "Hg10 mi
4:20 am30 °FClear.6 mph93%29.71 "Hg10 mi
3:50 am28 °FClear.5 mph100%29.71 "Hg10 mi
3:20 am30 °FClear.5 mph93%29.71 "Hg10 mi
2:50 am30 °FClear.5 mph100%29.71 "Hg10 mi
2:20 am28 °FClear.6 mph100%29.71 "Hg10 mi
1:50 am28 °FClear.5 mph100%29.71 "Hg10 mi
1:20 am28 °FClear.3 mph100%29.71 "Hg10 mi
12:50 am30 °FClear.3 mph93%29.71 "Hg10 mi
12:20 am32 °FClear.3 mph93%29.71 "Hg10 mi
11:50 pm
Wed, Apr 26
32 °FClear.6 mph93%29.71 "Hg10 mi
11:20 pm32 °FClear.6 mph93%29.71 "Hg10 mi
10:50 pm34 °FClear.7 mph87%29.71 "Hg10 mi
9:50 pm34 °FPassing clouds.6 mph93%29.71 "HgN/A
9:20 pm36 °FPassing clouds.3 mph87%29.71 "HgN/A
8:50 pm36 °FClear.3 mph93%29.71 "Hg10 mi
8:20 pm37 °FScattered clouds.3 mph81%29.71 "HgN/A
7:50 pm39 °FPassing clouds.2 mph75%29.71 "HgN/A
7:20 pm37 °FPassing clouds.2 mph87%29.71 "HgN/A
Weather by CustomWeather, © 2017

See weather overviewHow to use our weather pages